Time,TemperatureF,DewpointF,PressureIn,WindDirection,WindDirectionDegrees,WindSpeedMPH,WindSpeedGustMPH,Humidity,HourlyPrecipIn,Conditions,Clouds,dailyrainin,SoftwareType,DateUTC
2013-01-29 00:00:00,35.4,35.4,29.97,NW,305,3.4,6.1,100,0.00,,---,0.00,VWS V14.01,2013-01-29 05:00:00,
2013-01-29 00:01:00,46.3,46.3,30.00,SSW,201,1.2,5.8,100,0.00,,---,0.00,VWS V14.01,2013-01-29 05:01:00,
2013-01-29 00:02:00,35.3,35.3,29.97,WNW,297,3.4,4.8,100,0.00,,---,0.00,VWS V14.01,2013-01-29 05:02:00,
2013-01-29 00:03:00,35.0,35.0,29.97,WNW,287,1.1,6.1,100,0.00,,---,0.00,VWS V14.01,2013-01-29 05:03:00,
2013-01-29 00:08:00,35.5,35.5,29.97,NNW,346,0.0,0.0,100,0.00,,---,0.00,VWS V14.01,2013-01-29 05:08:00,
2013-01-29 00:13:00,35.7,35.7,29.97,NNW,346,0.0,0.0,100,0.00,,---,0.00,VWS V14.01,2013-01-29 05:13:00,
2013-01-29 00:14:00,35.2,35.2,29.97,SW,221,0.0,0.0,100,0.00,,---,0.00,VWS V14.01,2013-01-29 05:14:00,
2013-01-29 00:18:00,35.4,35.4,29.97,NNW,343,0.0,1.2,100,0.00,,---,0.00,VWS V14.01,2013-01-29 05:18:00,
2013-01-29 00:23:00,35.6,35.6,29.96,WNW,284,0.0,0.6,100,0.00,,---,0.00,VWS V14.01,2013-01-29 05:23:00,
2013-01-29 00:28:00,35.0,35.0,29.97,NNE,13,4.1,5.7,100,0.00,,---,0.00,VWS V14.01,2013-01-29 05:28:00,
2013-01-29 00:33:00,35.2,35.2,29.97,WNW,290,2.1,6.0,100,0.00,,---,0.00,VWS V14.01,2013-01-29 05:33:00,
2013-01-29 00:38:00,35.0,35.0,29.97,WNW,294,4.3,5.5,100,0.00,,---,0.00,VWS V14.01,2013-01-29 05:38:00,
2013-01-29 00:43:00,35.6,35.6,29.96,WNW,290,0.0,0.0,100,0.00,,---,0.00,VWS V14.01,2013-01-29 05:43:00,
2013-01-29 00:48:00,35.0,35.0,29.96,WSW,249,1.4,2.5,100,0.00,,---,0.00,VWS V14.01,2013-01-29 05:48:00,
2013-01-29 00:53:00,35.4,35.4,29.96,NW,312,0.0,0.0,100,0.00,,---,0.00,VWS V14.01,2013-01-29 05:53:00,
2013-01-29 00:58:00,35.2,35.2,29.96,SSE,158,0.0,0.0,100,0.00,,---,0.00,VWS V14.01,2013-01-29 05:58:00,
2013-01-29 01:03:00,34.9,34.9,29.96,SSE,158,0.0,0.0,100,0.00,,---,0.00,VWS V14.01,2013-01-29 06:03:00,
2013-01-29 01:08:00,34.9,34.9,29.96,SSE,158,0.0,0.0,100,0.00,,---,0.00,VWS V14.01,2013-01-29 06:08:00,
2013-01-29 01:13:00,35.1,35.1,29.96,NW,309,0.0,0.0,100,0.00,,---,0.00,VWS V14.01,2013-01-29 06:13:00,
2013-01-29 01:18:00,34.7,34.7,29.96,NW,309,0.0,0.0,100,0.00,,---,0.00,VWS V14.01,2013-01-29 06:18:00,
2013-01-29 01:23:00,35.1,35.1,29.96,West,274,5.2,5.6,100,0.00,,---,0.00,VWS V14.01,2013-01-29 06:23:00,
2013-01-29 01:28:00,35.1,35.1,29.96,West,273,0.0,1.4,100,0.00,,---,0.00,VWS V14.01,2013-01-29 06:28:00,
2013-01-29 01:33:00,34.9,34.9,29.95,NW,316,5.5,6.0,100,0.00,,---,0.00,VWS V14.01,2013-01-29 06:33:00,
2013-01-29 01:38:00,35.3,35.3,29.96,West,267,1.2,1.8,100,0.00,,---,0.00,VWS V14.01,2013-01-29 06:38:00,
2013-01-29 01:42:00,35.4,35.4,29.97,NNW,333,3.7,4.6,100,0.00,,---,0.00,VWS V14.01,2013-01-29 06:42:00,
2013-01-29 01:47:00,35.2,35.2,29.97,NW,305,0.4,2.0,100,0.00,,---,0.00,VWS V14.01,2013-01-29 06:47:00,
2013-01-29 01:52:00,35.1,35.1,29.96,WNW,283,0.0,0.0,100,0.00,,---,0.00,VWS V14.01,2013-01-29 06:52:00,
2013-01-29 01:57:00,35.2,35.2,29.97,NW,321,2.5,3.3,100,0.00,,---,0.00,VWS V14.01,2013-01-29 06:57:00,
2013-01-29 02:02:00,35.1,35.1,29.97,WNW,298,0.0,1.4,100,0.00,,---,0.00,VWS V14.01,2013-01-29 07:02:00,
2013-01-29 02:07:00,35.2,35.2,29.97,WNW,298,0.0,0.0,100,0.00,,---,0.00,VWS V14.01,2013-01-29 07:07:00,
2013-01-29 02:12:00,35.4,35.4,29.97,WNW,298,0.0,0.0,100,0.00,,---,0.00,VWS V14.01,2013-01-29 07:12:00,
2013-01-29 02:17:00,35.4,35.4,29.97,WNW,298,0.0,0.0,100,0.00,,---,0.00,VWS V14.01,2013-01-29 07:17:00,
2013-01-29 02:22:00,35.0,35.0,29.97,WNW,298,0.0,0.0,100,0.00,,---,0.00,VWS V14.01,2013-01-29 07:22:00,
2013-01-29 02:27:00,35.3,35.3,29.97,SW,221,0.0,0.0,100,0.00,,---,0.00,VWS V14.01,2013-01-29 07:27:00,
2013-01-29 02:32:00,35.2,35.2,29.97,SW,221,0.0,0.0,100,0.00,,---,0.00,VWS V14.01,2013-01-29 07:32:00,
2013-01-29 02:34:00,46.6,46.6,30.01,South,169,5.6,6.4,100,0.00,,---,0.00,VWS V14.01,2013-01-29 07:34:00,
2013-01-29 02:37:00,34.9,34.9,29.97,SW,221,0.0,0.0,100,0.00,,---,0.00,VWS V14.01,2013-01-29 07:37:00,
2013-01-29 02:42:00,35.4,35.4,29.98,SW,221,0.0,0.0,100,99.99,,---,0.00,VWS V14.01,2013-01-29 07:42:00,
2013-01-29 02:47:00,35.4,35.4,29.98,SW,221,0.0,0.0,100,0.00,,---,0.00,VWS V14.01,2013-01-29 07:47:00,
2013-01-29 02:52:00,35.6,35.6,29.98,WNW,290,0.0,0.0,100,0.00,,---,0.00,VWS V14.01,2013-01-29 07:52:00,
2013-01-29 02:57:00,35.4,35.4,29.98,WNW,290,0.0,0.0,100,0.00,,---,0.00,VWS V14.01,2013-01-29 07:57:00,
2013-01-29 03:02:00,35.5,35.5,29.98,WNW,290,0.0,0.0,100,0.00,,---,0.00,VWS V14.01,2013-01-29 08:02:00,
2013-01-29 03:07:00,35.0,35.0,29.98,WNW,290,0.0,0.0,100,0.00,,---,0.00,VWS V14.01,2013-01-29 08:07:00,
2013-01-29 03:12:00,35.3,35.3,29.98,WNW,290,0.0,0.0,100,0.00,,---,0.00,VWS V14.01,2013-01-29 08:12:00,
2013-01-29 03:17:00,35.4,35.4,29.97,WNW,290,0.0,0.0,100,0.00,,---,0.00,VWS V14.01,2013-01-29 08:17:00,
2013-01-29 03:22:00,35.0,35.0,29.98,WNW,290,0.0,0.0,100,0.00,,---,0.00,VWS V14.01,2013-01-29 08:22:00,
2013-01-29 03:27:00,35.7,35.7,29.97,WNW,290,0.0,0.0,100,0.00,,---,0.00,VWS V14.01,2013-01-29 08:27:00,
2013-01-29 03:28:00,35.8,35.8,29.97,West,267,1.0,1.1,100,0.00,,---,0.00,VWS V14.01,2013-01-29 08:28:00,
2013-01-29 03:32:00,35.3,35.3,29.97,WNW,287,4.5,4.5,100,0.00,,---,0.00,VWS V14.01,2013-01-29 08:32:00,
2013-01-29 03:37:00,35.4,35.4,29.97,SW,219,0.0,3.4,100,0.00,,---,0.00,VWS V14.01,2013-01-29 08:37:00,
2013-01-29 03:42:00,35.5,35.5,29.97,SW,233,0.0,3.5,100,0.00,,---,0.00,VWS V14.01,2013-01-29 08:42:00,
2013-01-29 03:47:00,35.0,35.0,29.97,SW,233,0.0,0.0,100,0.00,,---,0.00,VWS V14.01,2013-01-29 08:47:00,
2013-01-29 03:52:00,35.5,35.5,29.97,SW,233,0.0,0.0,100,0.00,,---,0.00,VWS V14.01,2013-01-29 08:52:00,
2013-01-29 03:57:00,35.3,35.3,29.97,SW,233,0.0,0.0,100,0.00,,---,0.00,VWS V14.01,2013-01-29 08:57:00,
2013-01-29 04:02:00,35.5,35.5,29.97,SW,233,0.0,0.0,100,0.00,,---,0.00,VWS V14.01,2013-01-29 09:02:00,
2013-01-29 04:07:00,35.6,35.6,29.98,WSW,238,0.0,2.2,100,0.00,,---,0.00,VWS V14.01,2013-01-29 09:07:00,
2013-01-29 04:12:00,35.0,35.0,29.98,WSW,257,4.0,6.2,100,0.00,,---,0.00,VWS V14.01,2013-01-29 09:12:00,
2013-01-29 04:17:00,35.5,35.5,29.97,West,262,3.7,6.2,100,0.00,,---,0.00,VWS V14.01,2013-01-29 09:17:00,
2013-01-29 04:22:00,35.5,35.5,29.97,West,260,1.8,6.1,100,0.00,,---,0.00,VWS V14.01,2013-01-29 09:22:00,
2013-01-29 04:27:00,35.6,35.6,29.98,West,262,0.0,3.4,100,0.00,,---,0.00,VWS V14.01,2013-01-29 09:27:00,
2013-01-29 04:32:00,35.3,35.3,29.98,West,273,0.0,0.0,100,0.00,,---,0.00,VWS V14.01,2013-01-29 09:32:00,
2013-01-29 04:37:00,35.5,35.5,29.98,West,273,0.0,0.0,100,0.00,,---,0.00,VWS V14.01,2013-01-29 09:37:00,
2013-01-29 04:42:00,35.5,35.5,29.98,West,273,0.0,0.0,100,0.00,,---,0.00,VWS V14.01,2013-01-29 09:42:00,
2013-01-29 04:47:00,35.9,35.9,29.98,West,273,0.0,0.0,100,0.00,,---,0.00,VWS V14.01,2013-01-29 09:47:00,
2013-01-29 04:52:00,35.7,35.7,29.98,West,264,0.0,0.0,100,0.00,,---,0.00,VWS V14.01,2013-01-29 09:52:00,
2013-01-29 04:57:00,35.8,35.8,29.99,NNW,328,3.1,3.2,100,1.35,,---,0.00,VWS V14.01,2013-01-29 09:57:00,
2013-01-29 05:02:00,35.9,35.9,29.99,West,280,1.3,6.0,100,0.00,,---,0.00,VWS V14.01,2013-01-29 10:02:00,
2013-01-29 05:07:00,36.0,36.0,29.99,West,266,4.5,4.5,100,0.00,,---,0.00,VWS V14.01,2013-01-29 10:07:00,
2013-01-29 05:12:00,35.6,35.6,29.99,WSW,256,0.0,0.0,100,0.00,,---,0.00,VWS V14.01,2013-01-29 10:12:00,
2013-01-29 05:17:00,36.1,36.1,30.00,WSW,256,0.0,0.0,100,0.00,,---,0.00,VWS V14.01,2013-01-29 10:17:00,
2013-01-29 05:22:00,35.8,35.8,30.00,WSW,256,0.0,0.0,100,0.00,,---,0.00,VWS V14.01,2013-01-29 10:22:00,
2013-01-29 05:27:00,35.7,35.7,30.00,WSW,256,0.0,0.0,100,0.00,,---,0.00,VWS V14.01,2013-01-29 10:27:00,
2013-01-29 05:32:00,36.2,36.2,30.00,WSW,256,0.0,0.0,100,0.00,,---,0.00,VWS V14.01,2013-01-29 10:32:00,
2013-01-29 05:37:00,36.3,36.3,30.00,WSW,256,0.0,0.0,100,73.08,,---,0.00,VWS V14.01,2013-01-29 10:37:00,
2013-01-29 05:42:00,36.1,36.1,30.00,WSW,256,0.0,0.0,100,0.00,,---,0.00,VWS V14.01,2013-01-29 10:42:00,
2013-01-29 05:47:00,36.4,36.4,30.00,WSW,256,0.0,0.0,100,0.00,,---,0.00,VWS V14.01,2013-01-29 10:47:00,
2013-01-29 05:52:00,36.2,36.2,30.01,WSW,256,0.0,0.0,100,0.00,,---,0.00,VWS V14.01,2013-01-29 10:52:00,
2013-01-29 05:57:00,36.3,36.3,30.01,WSW,256,0.0,0.0,100,99.99,,---,0.00,VWS V14.01,2013-01-29 10:57:00,
2013-01-29 06:02:00,36.4,36.4,30.01,WSW,256,0.0,0.0,100,0.00,,---,0.00,VWS V14.01,2013-01-29 11:02:00,
2013-01-29 06:07:00,36.7,36.7,30.01,WSW,256,0.0,0.0,100,0.00,,---,0.00,VWS V14.01,2013-01-29 11:07:00,
2013-01-29 06:12:00,36.7,36.7,30.01,WSW,256,0.0,0.0,100,0.00,,---,0.00,VWS V14.01,2013-01-29 11:12:00,
2013-01-29 06:17:00,37.1,37.1,30.00,WSW,256,0.0,0.0,100,0.00,,---,0.00,VWS V14.01,2013-01-29 11:17:00,
2013-01-29 06:22:00,36.8,36.8,30.01,WSW,256,0.0,0.0,100,73.56,,---,0.00,VWS V14.01,2013-01-29 11:22:00,
2013-01-29 06:27:00,37.2,37.2,30.02,WSW,256,0.0,0.0,100,0.00,,---,0.00,VWS V14.01,2013-01-29 11:27:00,
2013-01-29 06:32:00,36.8,36.8,30.02,WSW,256,0.0,0.0,100,0.00,,---,0.00,VWS V14.01,2013-01-29 11:32:00,
2013-01-29 06:37:00,37.3,37.3,30.02,WSW,256,0.0,0.0,100,0.00,,---,0.00,VWS V14.01,2013-01-29 11:37:00,
2013-01-29 06:42:00,37.6,37.6,30.03,NNW,346,4.2,5.0,100,0.00,,---,0.00,VWS V14.01,2013-01-29 11:42:00,
2013-01-29 06:47:00,37.7,37.7,30.03,NNE,28,6.0,6.3,100,0.00,,---,0.00,VWS V14.01,2013-01-29 11:47:00,
2013-01-29 06:52:00,37.8,37.8,30.03,NW,315,3.7,4.1,100,0.00,,---,0.00,VWS V14.01,2013-01-29 11:52:00,
2013-01-29 06:57:00,38.4,38.4,30.03,NE,38,4.0,5.8,100,0.00,,---,0.00,VWS V14.01,2013-01-29 11:57:00,
2013-01-29 07:02:00,37.6,37.6,30.03,North,359,6.0,6.3,100,0.00,,---,0.00,VWS V14.01,2013-01-29 12:02:00,
2013-01-29 07:07:00,37.9,37.9,30.04,NW,318,3.4,4.9,100,0.00,,---,0.00,VWS V14.01,2013-01-29 12:07:00,
2013-01-29 07:12:00,38.2,38.2,30.04,North,359,5.2,5.2,100,0.00,,---,0.00,VWS V14.01,2013-01-29 12:12:00,
2013-01-29 07:17:00,38.0,38.0,30.04,NNW,328,3.0,5.2,100,0.00,,---,0.00,VWS V14.01,2013-01-29 12:17:00,
2013-01-29 07:22:00,38.1,38.1,30.04,North,10,4.8,6.1,100,0.00,,---,0.00,VWS V14.01,2013-01-29 12:22:00,
2013-01-29 07:27:00,38.5,38.5,30.05,North,359,3.8,3.8,100,0.00,,---,0.00,VWS V14.01,2013-01-29 12:27:00,
2013-01-29 07:32:00,38.4,38.4,30.05,NW,314,0.0,0.0,100,0.00,,---,0.00,VWS V14.01,2013-01-29 12:32:00,
2013-01-29 07:37:00,38.2,38.2,30.05,NW,325,0.0,0.0,100,0.00,,---,0.00,VWS V14.01,2013-01-29 12:37:00,
2013-01-29 07:42:00,37.6,37.6,30.05,North,8,5.7,6.0,100,0.00,,---,0.00,VWS V14.01,2013-01-29 12:42:00,
2013-01-29 07:47:00,38.1,38.1,30.05,NNE,15,5.6,6.8,100,0.00,,---,0.00,VWS V14.01,2013-01-29 12:47:00,
2013-01-29 07:52:00,38.3,38.3,30.04,NE,42,6.8,6.8,100,0.00,,---,0.00,VWS V14.01,2013-01-29 12:52:00,
2013-01-29 07:56:00,39.4,39.4,30.04,North,1,5.3,6.4,100,0.00,,---,0.00,VWS V14.01,2013-01-29 12:56:00,
2013-01-29 08:01:00,39.8,39.8,30.04,NNE,30,3.7,4.7,100,0.00,,---,0.00,VWS V14.01,2013-01-29 13:01:00,
2013-01-29 08:06:00,39.9,39.9,30.04,WNW,287,3.4,3.4,100,0.00,,---,0.00,VWS V14.01,2013-01-29 13:06:00,
2013-01-29 08:11:00,39.6,39.6,30.05,West,278,2.6,4.2,100,0.00,,---,0.00,VWS V14.01,2013-01-29 13:11:00,
2013-01-29 08:16:00,39.8,39.8,30.05,NW,308,2.4,2.8,100,0.00,,---,0.00,VWS V14.01,2013-01-29 13:16:00,
2013-01-29 08:21:00,40.1,40.1,30.05,West,280,1.1,1.6,100,0.00,,---,0.00,VWS V14.01,2013-01-29 13:21:00,
2013-01-29 08:26:00,39.5,39.5,30.05,WSW,249,0.0,0.0,100,0.00,,---,0.00,VWS V14.01,2013-01-29 13:26:00,
2013-01-29 08:31:00,39.5,39.5,30.05,WSW,249,0.0,0.0,100,0.00,,---,0.00,VWS V14.01,2013-01-29 13:31:00,
2013-01-29 08:36:00,39.6,39.6,30.05,SW,236,1.9,1.9,100,0.00,,---,0.00,VWS V14.01,2013-01-29 13:36:00,
2013-01-29 08:41:00,40.0,40.0,30.05,NW,325,0.9,1.4,100,0.00,,---,0.00,VWS V14.01,2013-01-29 13:41:00,
2013-01-29 08:46:00,40.6,40.6,30.05,NW,321,0.0,0.0,100,0.00,,---,0.00,VWS V14.01,2013-01-29 13:46:00,
2013-01-29 08:51:00,40.6,40.6,30.05,NW,321,0.0,0.0,100,0.00,,---,0.00,VWS V14.01,2013-01-29 13:51:00,
2013-01-29 08:56:00,41.0,41.0,30.05,NW,321,0.0,0.0,100,73.08,,---,0.00,VWS V14.01,2013-01-29 13:56:00,
2013-01-29 09:01:00,40.4,40.4,30.06,NW,321,0.0,0.0,100,0.00,,---,0.00,VWS V14.01,2013-01-29 14:01:00,
2013-01-29 09:06:00,41.0,40.8,30.06,West,273,3.5,3.6,99,0.00,,---,0.00,VWS V14.01,2013-01-29 14:06:00,
2013-01-29 09:11:00,40.7,40.3,30.06,WNW,285,5.5,5.5,98,0.00,,---,0.00,VWS V14.01,2013-01-29 14:11:00,
2013-01-29 09:16:00,40.6,40.2,30.06,West,271,2.4,2.7,98,0.00,,---,0.00,VWS V14.01,2013-01-29 14:16:00,
2013-01-29 09:21:00,41.6,41.2,30.06,West,262,2.7,2.7,98,72.60,,---,0.00,VWS V14.01,2013-01-29 14:21:00,
2013-01-29 09:26:00,41.6,41.2,30.06,WSW,257,1.5,1.5,98,0.00,,---,0.00,VWS V14.01,2013-01-29 14:26:00,
2013-01-29 09:31:00,41.8,41.4,30.06,WSW,245,4.0,4.0,98,0.00,,---,0.00,VWS V14.01,2013-01-29 14:31:00,
2013-01-29 09:36:00,41.7,41.3,30.06,West,280,2.3,2.6,98,0.00,,---,0.00,VWS V14.01,2013-01-29 14:36:00,
2013-01-29 09:41:00,41.7,41.1,30.07,West,280,1.7,3.7,98,0.00,,---,0.00,VWS V14.01,2013-01-29 14:41:00,
2013-01-29 09:46:00,41.9,41.5,30.07,WSW,243,0.0,0.2,98,72.12,,---,0.00,VWS V14.01,2013-01-29 14:46:00,
2013-01-29 09:51:00,42.4,41.9,30.08,NW,318,2.5,5.6,98,0.00,,---,0.00,VWS V14.01,2013-01-29 14:51:00,
2013-01-29 09:56:00,42.5,42.1,30.08,NW,314,1.3,1.6,98,0.00,,---,0.00,VWS V14.01,2013-01-29 14:56:00,
2013-01-29 10:01:00,43.1,42.7,30.08,WNW,288,1.7,1.8,98,72.28,,---,0.00,VWS V14.01,2013-01-29 15:01:00,
2013-01-29 10:06:00,43.5,43.0,30.08,West,269,0.0,0.0,98,0.00,,---,0.00,VWS V14.01,2013-01-29 15:06:00,
2013-01-29 10:11:00,43.4,42.7,30.08,WNW,288,1.1,1.6,97,72.28,,---,0.00,VWS V14.01,2013-01-29 15:11:00,
2013-01-29 10:16:00,43.7,43.0,30.08,WNW,300,3.9,4.1,97,0.00,,---,0.00,VWS V14.01,2013-01-29 15:16:00,
2013-01-29 10:21:00,43.9,43.2,30.09,NW,315,4.0,5.0,97,0.00,,---,0.00,VWS V14.01,2013-01-29 15:21:00,
2013-01-29 10:26:00,43.7,42.9,30.08,NW,311,2.9,2.9,97,0.00,,---,0.00,VWS V14.01,2013-01-29 15:26:00,
2013-01-29 10:31:00,44.7,43.8,30.09,NE,35,0.0,1.2,97,0.00,,---,0.00,VWS V14.01,2013-01-29 15:31:00,
2013-01-29 10:36:00,44.8,43.7,30.08,NW,322,1.9,3.0,96,0.00,,---,0.00,VWS V14.01,2013-01-29 15:36:00,
2013-01-29 10:41:00,44.7,43.7,30.08,SSW,202,0.9,1.1,96,0.00,,---,0.00,VWS V14.01,2013-01-29 15:41:00,
2013-01-29 10:46:00,45.1,43.9,30.08,SW,225,0.0,1.3,96,0.00,,---,0.00,VWS V14.01,2013-01-29 15:46:00,
2013-01-29 10:51:00,45.6,44.5,30.08,SW,225,0.0,0.0,96,0.00,,---,0.00,VWS V14.01,2013-01-29 15:51:00,
2013-01-29 10:56:00,45.9,44.7,30.08,NW,316,0.0,1.4,95,0.00,,---,0.00,VWS V14.01,2013-01-29 15:56:00,
2013-01-29 11:01:00,46.7,44.5,30.08,NW,305,1.4,3.4,92,0.00,,---,0.00,VWS V14.01,2013-01-29 16:01:00,
2013-01-29 11:06:00,46.0,43.2,30.08,NW,309,2.1,3.7,90,0.00,,---,0.00,VWS V14.01,2013-01-29 16:06:00,
2013-01-29 11:11:00,46.4,44.3,30.08,NW,319,0.0,1.2,92,0.00,,---,0.00,VWS V14.01,2013-01-29 16:11:00,
2013-01-29 11:16:00,47.0,44.9,30.07,NW,319,0.0,0.0,92,0.00,,---,0.00,VWS V14.01,2013-01-29 16:16:00,
2013-01-29 11:21:00,47.2,44.8,30.07,SE,124,0.7,1.7,91,0.00,,---,0.00,VWS V14.01,2013-01-29 16:21:00,
2013-01-29 11:26:00,47.5,44.5,30.06,SSE,162,1.3,2.5,89,0.00,,---,0.00,VWS V14.01,2013-01-29 16:26:00,
2013-01-29 11:31:00,48.0,44.6,30.06,SW,221,3.7,3.9,88,0.00,,---,0.00,VWS V14.01,2013-01-29 16:31:00,
2013-01-29 11:36:00,48.3,44.7,30.05,South,181,2.1,2.4,87,72.76,,---,0.00,VWS V14.01,2013-01-29 16:36:00,
2013-01-29 11:41:00,48.6,44.2,30.05,SSE,158,2.8,3.2,85,0.00,,---,0.00,VWS V14.01,2013-01-29 16:41:00,
2013-01-29 11:46:00,49.2,45.0,30.05,NNE,20,0.0,0.0,85,0.00,,---,0.00,VWS V14.01,2013-01-29 16:46:00,
2013-01-29 11:51:00,49.5,44.3,30.04,SSW,212,2.3,2.4,82,0.00,,---,0.00,VWS V14.01,2013-01-29 16:51:00,
2013-01-29 11:56:00,49.9,44.0,30.04,South,170,3.4,4.2,80,0.00,,---,0.00,VWS V14.01,2013-01-29 16:56:00,
2013-01-29 12:01:00,50.1,43.9,30.05,SSW,204,3.6,5.0,79,73.40,,---,0.00,VWS V14.01,2013-01-29 17:01:00,
2013-01-29 12:06:00,50.1,44.0,30.05,NW,309,0.0,0.9,79,0.00,,---,0.00,VWS V14.01,2013-01-29 17:06:00,
2013-01-29 12:11:00,50.6,43.9,30.05,ENE,73,0.0,1.7,78,0.00,,---,0.00,VWS V14.01,2013-01-29 17:11:00,
2013-01-29 12:16:00,50.8,43.8,30.05,East,87,0.0,0.0,77,0.00,,---,0.00,VWS V14.01,2013-01-29 17:16:00,
2013-01-29 12:21:00,50.8,43.5,30.05,WSW,253,1.5,2.6,76,0.00,,---,0.00,VWS V14.01,2013-01-29 17:21:00,
2013-01-29 12:26:00,50.8,44.2,30.05,NW,315,1.9,2.9,78,73.88,,---,0.00,VWS V14.01,2013-01-29 17:26:00,
2013-01-29 12:31:00,50.6,43.5,30.05,SSW,210,3.3,4.2,76,0.00,,---,0.00,VWS V14.01,2013-01-29 17:31:00,
2013-01-29 12:36:00,50.6,43.0,30.05,WNW,297,3.1,3.5,75,0.00,,---,0.00,VWS V14.01,2013-01-29 17:36:00,
2013-01-29 12:41:00,50.6,43.6,30.05,NW,318,1.2,3.1,77,0.00,,---,0.00,VWS V14.01,2013-01-29 17:41:00,
2013-01-29 12:46:00,50.4,42.8,30.05,WNW,301,1.6,3.1,75,0.00,,---,0.00,VWS V14.01,2013-01-29 17:46:00,
2013-01-29 12:51:00,50.8,43.1,30.05,SW,228,1.8,1.9,75,0.00,,---,0.00,VWS V14.01,2013-01-29 17:51:00,
2013-01-29 12:56:00,50.8,42.7,30.05,WSW,253,3.4,4.8,74,0.00,,---,0.00,VWS V14.01,2013-01-29 17:56:00,
2013-01-29 13:01:00,50.9,42.9,30.05,SSW,201,1.9,3.1,74,73.56,,---,0.00,VWS V14.01,2013-01-29 18:01:00,
2013-01-29 13:06:00,51.1,42.8,30.04,South,190,2.7,3.0,73,0.00,,---,0.00,VWS V14.01,2013-01-29 18:06:00,
2013-01-29 13:11:00,51.0,42.3,30.04,WSW,239,1.7,3.2,72,0.00,,---,0.00,VWS V14.01,2013-01-29 18:11:00,
2013-01-29 13:16:00,51.3,42.5,30.04,SSE,158,2.7,3.0,72,0.00,,---,0.00,VWS V14.01,2013-01-29 18:16:00,
2013-01-29 13:21:00,51.4,42.3,30.04,SW,219,2.4,4.2,71,0.00,,---,0.00,VWS V14.01,2013-01-29 18:21:00,
2013-01-29 13:26:00,51.4,42.2,30.04,South,190,2.6,2.7,71,0.00,,---,0.00,VWS V14.01,2013-01-29 18:26:00,
2013-01-29 13:31:00,51.3,41.8,30.04,SSE,165,3.6,4.0,70,0.00,,---,0.00,VWS V14.01,2013-01-29 18:31:00,
2013-01-29 13:36:00,51.7,42.2,30.04,SW,217,3.8,4.3,70,0.00,,---,0.00,VWS V14.01,2013-01-29 18:36:00,
2013-01-29 13:41:00,52.2,42.5,30.04,WSW,246,3.0,3.5,69,0.00,,---,0.00,VWS V14.01,2013-01-29 18:41:00,
2013-01-29 13:46:00,51.7,42.0,30.03,South,184,3.7,4.7,69,0.00,,---,0.00,VWS V14.01,2013-01-29 18:46:00,
2013-01-29 13:51:00,51.6,41.4,30.03,South,172,5.7,7.1,68,73.24,,---,0.00,VWS V14.01,2013-01-29 18:51:00,
2013-01-29 13:56:00,51.8,41.8,30.02,SSW,210,4.9,8.1,68,0.00,,---,0.00,VWS V14.01,2013-01-29 18:56:00,
2013-01-29 14:01:00,51.8,41.7,30.02,SSE,167,4.5,4.5,68,0.00,,---,0.00,VWS V14.01,2013-01-29 19:01:00,
2013-01-29 14:06:00,51.9,41.9,30.03,South,181,3.7,5.3,68,0.00,,---,0.00,VWS V14.01,2013-01-29 19:06:00,
2013-01-29 14:11:00,51.8,41.8,30.03,ENE,63,7.3,7.4,69,0.00,,---,0.00,VWS V14.01,2013-01-29 19:11:00,
2013-01-29 14:16:00,51.8,42.0,30.03,East,79,1.1,4.5,69,0.00,,---,0.00,VWS V14.01,2013-01-29 19:16:00,
2013-01-29 14:21:00,51.4,42.1,30.03,SSE,148,2.8,3.1,70,0.00,,---,0.00,VWS V14.01,2013-01-29 19:21:00,
2013-01-29 14:26:00,50.8,42.2,30.03,ESE,122,3.5,4.9,72,0.00,,---,0.00,VWS V14.01,2013-01-29 19:26:00,
2013-01-29 14:31:00,50.2,41.9,30.04,NNE,30,1.4,3.5,73,0.00,,---,0.00,VWS V14.01,2013-01-29 19:31:00,
2013-01-29 14:36:00,50.2,42.0,30.03,ESE,120,4.5,5.2,73,0.00,,---,0.00,VWS V14.01,2013-01-29 19:36:00,
2013-01-29 14:41:00,49.8,41.6,30.04,ESE,118,4.3,6.2,73,0.00,,---,0.00,VWS V14.01,2013-01-29 19:41:00,
2013-01-29 14:46:00,49.5,41.3,30.04,South,169,4.9,4.9,73,0.00,,---,0.00,VWS V14.01,2013-01-29 19:46:00,
2013-01-29 14:51:00,49.0,41.0,30.04,South,183,5.9,5.9,74,0.00,,---,0.00,VWS V14.01,2013-01-29 19:51:00,
2013-01-29 14:56:00,49.7,41.7,30.04,ESE,121,5.1,6.4,74,0.00,,---,0.00,VWS V14.01,2013-01-29 19:56:00,
2013-01-29 14:58:00,49.3,41.3,30.04,SSE,158,4.8,8.6,74,0.00,,---,0.00,VWS V14.01,2013-01-29 19:58:00,
2013-01-29 15:03:00,49.3,41.5,30.04,South,188,4.8,7.3,74,0.00,,---,0.00,VWS V14.01,2013-01-29 20:03:00,
2013-01-29 15:08:00,49.1,41.3,30.04,SE,138,5.5,7.1,74,0.00,,---,0.00,VWS V14.01,2013-01-29 20:08:00,
2013-01-29 15:13:00,48.5,40.6,30.03,SSE,155,6.0,8.9,74,0.00,,---,0.00,VWS V14.01,2013-01-29 20:13:00,
2013-01-29 15:18:00,48.3,40.5,30.03,SSW,198,0.6,9.9,74,0.00,,---,0.00,VWS V14.01,2013-01-29 20:18:00,
2013-01-29 15:23:00,48.6,40.8,30.03,SSE,165,6.0,6.4,74,0.00,,---,0.00,VWS V14.01,2013-01-29 20:23:00,
2013-01-29 15:28:00,48.6,41.0,30.03,SW,221,5.0,9.1,75,0.00,,---,0.00,VWS V14.01,2013-01-29 20:28:00,
2013-01-29 15:33:00,48.2,40.7,30.03,South,177,4.0,8.6,75,0.00,,---,0.00,VWS V14.01,2013-01-29 20:33:00,
2013-01-29 15:38:00,48.3,40.9,30.04,SE,124,4.5,6.3,76,0.00,,---,0.00,VWS V14.01,2013-01-29 20:38:00,
2013-01-29 15:43:00,48.2,41.0,30.03,South,187,7.4,7.5,76,72.12,,---,0.00,VWS V14.01,2013-01-29 20:43:00,
2013-01-29 15:48:00,47.8,40.8,30.03,SE,135,5.8,6.8,76,0.00,,---,0.00,VWS V14.01,2013-01-29 20:48:00,
2013-01-29 15:53:00,48.0,41.2,30.03,SSW,208,2.7,3.7,77,0.00,,---,0.00,VWS V14.01,2013-01-29 20:53:00,
2013-01-29 15:58:00,47.3,40.6,30.04,South,174,5.0,9.4,77,0.00,,---,0.00,VWS V14.01,2013-01-29 20:58:00,
2013-01-29 16:03:00,47.2,40.6,30.04,North,359,2.9,8.2,78,0.00,,---,0.00,VWS V14.01,2013-01-29 21:03:00,
2013-01-29 16:08:00,47.3,40.8,30.04,South,187,3.0,5.5,78,0.00,,---,0.00,VWS V14.01,2013-01-29 21:08:00,
2013-01-29 16:13:00,46.9,40.5,30.04,SE,143,1.9,4.4,78,0.00,,---,0.00,VWS V14.01,2013-01-29 21:13:00,
2013-01-29 16:18:00,47.0,40.7,30.04,SE,134,4.2,6.0,79,0.00,,---,0.00,VWS V14.01,2013-01-29 21:18:00,
2013-01-29 16:23:00,46.4,40.3,30.04,South,173,4.3,4.8,79,0.00,,---,0.00,VWS V14.01,2013-01-29 21:23:00,
2013-01-29 16:28:00,46.0,40.0,30.04,South,172,5.7,7.1,79,0.00,,---,0.00,VWS V14.01,2013-01-29 21:28:00,
2013-01-29 16:33:00,46.3,40.5,30.03,SSE,149,0.0,2.5,80,0.00,,---,0.00,VWS V14.01,2013-01-29 21:33:00,
2013-01-29 16:38:00,45.9,40.1,30.04,WNW,291,0.0,0.0,80,0.00,,---,0.00,VWS V14.01,2013-01-29 21:38:00,
2013-01-29 16:43:00,46.0,40.3,30.04,North,359,0.2,0.2,80,0.00,,---,0.00,VWS V14.01,2013-01-29 21:43:00,
2013-01-29 16:48:00,45.7,40.1,30.04,SSW,200,0.0,2.8,81,0.00,,---,0.00,VWS V14.01,2013-01-29 21:48:00,
2013-01-29 16:53:00,45.8,40.3,30.04,SSW,211,0.0,0.5,81,0.00,,---,0.00,VWS V14.01,2013-01-29 21:53:00,
2013-01-29 16:58:00,46.0,40.7,30.05,SSW,200,2.9,5.0,82,0.00,,---,0.00,VWS V14.01,2013-01-29 21:58:00,
2013-01-29 17:03:00,45.0,40.1,30.05,ESE,120,6.1,8.7,83,0.00,,---,0.00,VWS V14.01,2013-01-29 22:03:00,
2013-01-29 17:08:00,44.8,40.2,30.05,SW,228,3.8,9.6,84,0.00,,---,0.00,VWS V14.01,2013-01-29 22:08:00,
2013-01-29 17:13:00,45.1,40.6,30.05,South,187,5.5,5.7,84,0.00,,---,0.00,VWS V14.01,2013-01-29 22:13:00,
2013-01-29 17:18:00,44.5,40.2,30.05,SE,141,4.7,4.8,85,0.00,,---,0.00,VWS V14.01,2013-01-29 22:18:00,
2013-01-29 17:23:00,45.0,40.9,30.05,South,174,1.9,5.7,85,0.00,,---,0.00,VWS V14.01,2013-01-29 22:23:00,
2013-01-29 17:28:00,44.9,40.8,30.05,SSE,152,5.5,5.7,85,0.00,,---,0.00,VWS V14.01,2013-01-29 22:28:00,
2013-01-29 17:33:00,44.2,40.1,30.05,SSE,152,2.8,2.8,86,0.00,,---,0.00,VWS V14.01,2013-01-29 22:33:00,
2013-01-29 17:38:00,44.4,40.5,30.05,SSE,162,4.7,8.6,86,0.00,,---,0.00,VWS V14.01,2013-01-29 22:38:00,
2013-01-29 17:43:00,44.5,40.8,30.05,East,80,4.2,6.2,87,0.00,,---,0.00,VWS V14.01,2013-01-29 22:43:00,
2013-01-29 17:48:00,43.5,40.0,30.04,SE,143,5.0,7.9,88,0.00,,---,0.00,VWS V14.01,2013-01-29 22:48:00,
2013-01-29 17:53:00,44.4,41.0,30.05,ENE,72,5.2,7.3,88,0.00,,---,0.00,VWS V14.01,2013-01-29 22:53:00,
2013-01-29 17:58:00,43.4,40.2,30.05,SW,228,0.0,5.9,88,0.00,,---,0.00,VWS V14.01,2013-01-29 22:58:00,
2013-01-29 18:03:00,43.2,40.2,30.05,West,259,2.2,7.6,89,0.00,,---,0.00,VWS V14.01,2013-01-29 23:03:00,
2013-01-29 18:08:00,43.2,40.4,30.06,North,359,0.0,0.0,90,0.00,,---,0.00,VWS V14.01,2013-01-29 23:08:00,
2013-01-29 18:13:00,43.6,41.0,30.06,North,359,3.5,9.1,90,0.00,,---,0.00,VWS V14.01,2013-01-29 23:13:00,
2013-01-29 18:18:00,43.5,41.2,30.05,North,359,3.6,6.7,92,0.00,,---,0.00,VWS V14.01,2013-01-29 23:18:00,
2013-01-29 18:23:00,43.7,41.6,30.05,North,359,5.0,9.6,92,0.00,,---,0.00,VWS V14.01,2013-01-29 23:23:00,
2013-01-29 18:28:00,43.2,41.4,30.05,SE,135,6.3,8.9,93,0.00,,---,0.00,VWS V14.01,2013-01-29 23:28:00,
2013-01-29 18:33:00,43.2,41.4,30.06,North,6,3.0,3.5,93,0.00,,---,0.00,VWS V14.01,2013-01-29 23:33:00,
2013-01-29 18:38:00,43.5,41.9,30.06,NNE,21,1.6,1.6,94,0.00,,---,0.00,VWS V14.01,2013-01-29 23:38:00,
2013-01-29 18:43:00,43.7,42.4,30.06,SSE,167,5.4,6.6,95,0.00,,---,0.00,VWS V14.01,2013-01-29 23:43:00,
2013-01-29 18:48:00,43.6,42.3,30.06,ESE,117,5.3,5.3,95,0.00,,---,0.00,VWS V14.01,2013-01-29 23:48:00,
2013-01-29 18:53:00,43.6,42.3,30.07,SSE,152,3.0,4.3,95,0.00,,---,0.00,VWS V14.01,2013-01-29 23:53:00,
2013-01-29 18:58:00,43.5,42.4,30.07,North,359,2.1,8.0,96,0.00,,---,0.00,VWS V14.01,2013-01-29 23:58:00,
2013-01-29 19:03:00,43.1,42.0,30.07,North,359,1.1,6.2,96,0.00,,---,0.00,VWS V14.01,2013-01-30 00:03:00,
2013-01-29 19:08:00,43.5,42.4,30.07,North,359,4.5,6.8,96,0.00,,---,0.00,VWS V14.01,2013-01-30 00:08:00,
2013-01-29 19:13:00,43.3,42.3,30.08,ESE,121,4.0,4.0,96,0.00,,---,0.00,VWS V14.01,2013-01-30 00:13:00,
2013-01-29 19:18:00,44.0,43.0,30.07,SE,142,4.5,4.7,96,0.00,,---,0.00,VWS V14.01,2013-01-30 00:18:00,
2013-01-29 19:23:00,43.5,42.5,30.06,SSE,158,5.7,6.4,96,0.00,,---,0.00,VWS V14.01,2013-01-30 00:23:00,
2013-01-29 19:28:00,43.8,42.8,30.07,North,359,7.1,7.1,96,0.00,,---,0.00,VWS V14.01,2013-01-30 00:28:00,
2013-01-29 19:33:00,44.1,43.2,30.07,SE,141,4.5,5.2,97,0.00,,---,0.00,VWS V14.01,2013-01-30 00:33:00,
2013-01-29 19:38:00,43.6,42.7,30.06,SE,141,2.7,2.7,97,0.00,,---,0.00,VWS V14.01,2013-01-30 00:38:00,
2013-01-29 19:43:00,43.8,42.9,30.06,ESE,112,3.1,4.2,97,0.00,,---,0.00,VWS V14.01,2013-01-30 00:43:00,
2013-01-29 19:48:00,44.2,43.3,30.06,SE,134,3.2,7.0,97,0.00,,---,0.00,VWS V14.01,2013-01-30 00:48:00,
2013-01-29 19:53:00,44.1,43.2,30.06,SE,141,5.9,6.2,97,0.00,,---,0.00,VWS V14.01,2013-01-30 00:53:00,
2013-01-29 19:58:00,44.2,43.3,30.05,SE,143,5.8,6.3,97,0.00,,---,0.00,VWS V14.01,2013-01-30 00:58:00,
2013-01-29 20:03:00,44.8,44.0,30.05,SE,141,7.0,7.5,97,0.00,,---,0.00,VWS V14.01,2013-01-30 01:03:00,
2013-01-29 20:08:00,43.6,42.8,30.05,SE,129,4.9,6.7,97,99.99,,---,0.00,VWS V14.01,2013-01-30 01:08:00,
2013-01-29 20:13:00,44.1,43.3,30.05,SSE,150,4.7,5.2,97,0.00,,---,0.00,VWS V14.01,2013-01-30 01:13:00,
2013-01-29 20:18:00,44.2,43.4,30.05,SSE,159,5.5,5.5,97,0.00,,---,0.00,VWS V14.01,2013-01-30 01:18:00,
2013-01-29 20:23:00,43.7,42.9,30.05,ESE,111,6.4,8.1,97,71.96,,---,0.00,VWS V14.01,2013-01-30 01:23:00,
2013-01-29 20:28:00,43.5,42.7,30.05,SE,146,4.1,4.3,97,0.00,,---,0.00,VWS V14.01,2013-01-30 01:28:00,
2013-01-29 20:33:00,44.3,43.5,30.05,SSE,162,4.8,5.4,97,0.00,,---,0.00,VWS V14.01,2013-01-30 01:33:00,
2013-01-29 20:38:00,43.9,43.1,30.05,SE,141,3.6,4.8,97,0.00,,---,0.00,VWS V14.01,2013-01-30 01:38:00,
2013-01-29 20:43:00,44.7,43.9,30.05,SSE,158,5.5,5.5,97,0.00,,---,0.00,VWS V14.01,2013-01-30 01:43:00,
2013-01-29 20:48:00,43.7,42.8,30.05,SSE,165,4.8,7.0,97,71.80,,---,0.00,VWS V14.01,2013-01-30 01:48:00,
2013-01-29 20:53:00,44.1,43.2,30.05,SE,146,3.7,4.3,97,0.00,,---,0.00,VWS V14.01,2013-01-30 01:53:00,
2013-01-29 20:58:00,44.0,43.1,30.06,South,184,3.3,4.1,97,0.00,,---,0.00,VWS V14.01,2013-01-30 01:58:00,
2013-01-29 21:02:00,44.0,43.1,30.05,South,169,2.7,3.5,97,0.00,,---,0.00,VWS V14.01,2013-01-30 02:02:00,
2013-01-29 21:07:00,44.6,43.7,30.06,South,187,4.4,4.4,97,0.00,,---,0.00,VWS V14.01,2013-01-30 02:07:00,
2013-01-29 21:12:00,43.2,42.3,30.06,South,181,3.2,4.8,97,0.00,,---,0.00,VWS V14.01,2013-01-30 02:12:00,
2013-01-29 21:17:00,44.2,43.4,30.05,SSE,167,4.4,4.5,97,0.00,,---,0.00,VWS V14.01,2013-01-30 02:17:00,
2013-01-29 21:22:00,44.4,43.6,30.05,SSE,163,2.4,4.3,97,0.00,,---,0.00,VWS V14.01,2013-01-30 02:22:00,
2013-01-29 21:27:00,44.1,43.3,30.05,SSE,165,4.4,5.7,97,0.00,,---,0.00,VWS V14.01,2013-01-30 02:27:00,
2013-01-29 21:32:00,44.1,43.4,30.05,SSW,211,3.9,4.0,97,0.00,,---,0.00,VWS V14.01,2013-01-30 02:32:00,
2013-01-29 21:37:00,44.5,43.8,30.04,SE,127,3.5,5.4,97,0.00,,---,0.00,VWS V14.01,2013-01-30 02:37:00,
2013-01-29 21:42:00,44.3,43.6,30.04,SSE,165,5.2,5.2,98,0.00,,---,0.00,VWS V14.01,2013-01-30 02:42:00,
2013-01-29 21:47:00,43.6,43.0,30.04,SSE,156,4.7,5.5,98,0.00,,---,0.00,VWS V14.01,2013-01-30 02:47:00,
2013-01-29 21:52:00,44.6,44.0,30.03,South,191,5.3,5.7,98,0.00,,---,0.00,VWS V14.01,2013-01-30 02:52:00,
2013-01-29 21:57:00,44.6,44.2,30.04,South,190,6.0,6.0,98,0.00,,---,0.00,VWS V14.01,2013-01-30 02:57:00,
2013-01-29 22:02:00,44.9,44.5,30.03,SSE,167,6.1,6.6,98,0.00,,---,0.00,VWS V14.01,2013-01-30 03:02:00,
2013-01-29 22:07:00,45.1,44.7,30.03,South,170,7.5,8.9,98,0.00,,---,0.00,VWS V14.01,2013-01-30 03:07:00,
2013-01-29 22:12:00,45.2,44.8,30.02,South,184,5.2,5.7,98,0.00,,---,0.00,VWS V14.01,2013-01-30 03:12:00,
2013-01-29 22:17:00,44.5,44.0,30.02,SW,235,6.8,8.3,98,0.00,,---,0.00,VWS V14.01,2013-01-30 03:17:00,
2013-01-29 22:22:00,45.6,45.3,30.02,North,359,3.5,3.5,99,0.00,,---,0.00,VWS V14.01,2013-01-30 03:22:00,
2013-01-29 22:27:00,45.7,45.3,30.02,North,359,2.4,2.4,98,0.00,,---,0.00,VWS V14.01,2013-01-30 03:27:00,
2013-01-29 22:32:00,46.1,45.8,30.02,South,174,9.8,9.8,99,0.00,,---,0.00,VWS V14.01,2013-01-30 03:32:00,
2013-01-29 22:37:00,45.9,45.5,30.02,WNW,300,9.8,9.8,99,0.00,,---,0.00,VWS V14.01,2013-01-30 03:37:00,
2013-01-29 22:42:00,46.2,45.9,30.02,SSE,166,9.3,9.4,99,0.00,,---,0.00,VWS V14.01,2013-01-30 03:42:00,
2013-01-29 22:47:00,46.2,45.9,30.02,South,169,7.2,7.6,99,0.00,,---,0.00,VWS V14.01,2013-01-30 03:47:00,
2013-01-29 22:52:00,45.8,45.5,30.02,SSW,195,6.5,7.3,99,0.00,,---,0.00,VWS V14.01,2013-01-30 03:52:00,
2013-01-29 22:57:00,46.1,45.8,30.02,South,186,4.3,7.1,99,0.00,,---,0.00,VWS V14.01,2013-01-30 03:57:00,
2013-01-29 23:02:00,45.8,45.6,30.02,SE,142,4.2,8.6,99,0.00,,---,0.00,VWS V14.01,2013-01-30 04:02:00,
2013-01-29 23:07:00,46.0,45.8,30.01,SSE,156,6.3,9.4,99,0.00,,---,0.00,VWS V14.01,2013-01-30 04:07:00,
2013-01-29 23:12:00,46.3,46.1,30.01,South,188,4.4,7.3,99,0.00,,---,0.00,VWS V14.01,2013-01-30 04:12:00,
2013-01-29 23:17:00,46.7,46.5,30.02,SSW,202,4.3,9.0,99,0.00,,---,0.00,VWS V14.01,2013-01-30 04:17:00,
2013-01-29 23:22:00,46.1,46.0,30.02,SSW,198,8.5,8.7,100,0.00,,---,0.00,VWS V14.01,2013-01-30 04:22:00,
2013-01-29 23:27:00,46.0,45.9,30.02,South,180,6.1,8.9,100,0.00,,---,0.00,VWS V14.01,2013-01-30 04:27:00,
2013-01-29 23:32:00,45.8,45.7,30.02,WSW,246,6.5,7.6,100,0.00,,---,0.00,VWS V14.01,2013-01-30 04:32:00,
2013-01-29 23:37:00,46.1,46.1,30.02,SE,128,6.2,7.8,100,0.00,,---,0.00,VWS V14.01,2013-01-30 04:37:00,
2013-01-29 23:42:00,45.8,45.8,30.01,SW,226,3.9,5.8,100,0.00,,---,0.00,VWS V14.01,2013-01-30 04:42:00,
2013-01-29 23:47:00,46.1,46.1,30.01,South,187,4.1,6.5,100,0.00,,---,0.00,VWS V14.01,2013-01-30 04:47:00,
2013-01-29 23:52:00,46.1,46.1,30.01,South,179,3.4,6.0,100,0.00,,---,0.00,VWS V14.01,2013-01-30 04:52:00,
2013-01-29 23:57:00,45.8,45.8,30.01,SW,228,4.8,6.4,100,0.00,,---,0.00,VWS V14.01,2013-01-30 04:57:00,